Flag for USA

Past Weather in Utah Labor Center Condominium, Utah, USA — Yesterday and Last 2 Weeks

Now
37 °F

Fog.


Feels Like: 37 °F
Forecast: 38 / 35 °F
Wind: No wind

Location: Salt Lake City International Airport

Current Time: Dec 5, 2019 at 3:13:29 pm

Latest Report: Dec 5, 2019 at 2:34 pm


Visibility: 2 mi

Pressure: 30.19 "Hg

Humidity: 93%

Dew Point: 35 °F

Location of Utah Labor Center CondominiumLocation

Past Weather in Utah Labor Center Condominium — Graph

°F

Utah Labor Center Condominium Temperature Yesterday

Maximum temperature yesterday: 33 °F (at 10:32 pm)
Minimum temperature yesterday: 25 °F (at 8:21 am)
Average temperature yesterday: 30 °F

High & Low Weather Summary for the Past Weeks

 TemperatureHumidityPressure
High49 °F (Nov 20, 2:54 pm)100% (Nov 27, 6:16 pm)30.41 "Hg (Nov 27, 6:16 pm)
Low20 °F (Nov 26, 7:54 am)44% (Nov 23, 1:54 pm)29.38 "Hg (Nov 29, 8:54 am)
Average34 °F82%29.96 "Hg
* Reported Nov 20 1:54 pm — Dec 5 1:54 pm, Utah Labor Center Condominium. Weather by CustomWeather, © 2019

Note: Actual official high and low records may vary slightly from our data, if they occured in-between our weather recording intervals... More about our weather records

Utah Labor Center Condominium Weather History for the Previous 24 Hours

Scroll right to see more
 ConditionsComfort  
Time TempWeatherWind HumidityBarometerVisibility
1:54 pm
Thu, Dec 5
37 °FFog.No wind93%30.19 "Hg2 mi
12:54 pm36 °FLight rain. Fog.3 mph92%30.18 "Hg2 mi
11:54 am35 °FLight rain. Fog.No wind96%30.19 "Hg2 mi
11:23 am35 °FFog.No wind96%30.15 "Hg1 mi
11:08 am35 °FFog.No wind96%30.14 "Hg1 mi
9:54 am35 °FLight rain. Fog.No wind96%30.14 "Hg1 mi
8:54 am33 °FLight snow. Fog.5 mph100%30.12 "Hg1 mi
7:54 am34 °FLight snow. Fog.5 mph97%30.07 "Hg1 mi
7:43 am34 °FLight rain. Fog.3 mph97%30.03 "Hg1 mi
7:01 am34 °FLight rain. Fog.No wind97%30.01 "Hg1 mi
5:54 am34 °FLight rain. Fog.5 mph97%30.00 "Hg1 mi
5:35 am34 °FLight rain. Fog.6 mph97%29.96 "Hg1 mi
4:54 am33 °FFog.5 mph96%29.98 "Hg1 mi
3:54 am33 °FFog.7 mph96%29.96 "Hg1 mi
3:24 am33 °FFog.7 mph96%29.93 "Hg1 mi
2:54 am33 °FFog.7 mph96%29.95 "Hg1 mi
1:54 am33 °FFog.6 mph96%29.92 "Hg1 mi
1:43 am33 °FFog.5 mph92%29.89 "Hg1 mi
1:29 am33 °FFog.No wind96%29.89 "Hg1 mi
12:54 am34 °FLight rain. Fog.No wind92%29.91 "Hg1 mi
12:33 am34 °FLight rain. Fog.No wind92%29.89 "Hg1 mi
12:11 am33 °FLight freezing rain. Fog.No wind96%29.89 "Hg1 mi
11:54 pm
Wed, Dec 4
33 °FLight freezing rain. Fog.No wind96%29.92 "Hg1 mi
10:54 pm33 °FLight freezing rain. Fog.No wind92%29.94 "Hg2 mi
10:32 pm33 °FFreezing rain. Fog.3 mph92%29.91 "Hg2 mi
10:14 pm32 °FFreezing rain. Ice fog.3 mph96%29.91 "Hg2 mi
8:54 pm31 °FIce fog.3 mph96%29.94 "Hg1 mi
7:54 pm30 °FIce fog.No wind92%29.96 "Hg1 mi
7:17 pm30 °FIce fog.3 mph100%29.92 "Hg1 mi
6:54 pm30 °FIce fog.6 mph96%29.97 "Hg0 mi
6:35 pm30 °FIce fog.6 mph100%29.93 "Hg0 mi
5:54 pm30 °FIce fog.6 mph100%29.99 "Hg0 mi
4:54 pm31 °FIce fog.5 mph96%29.98 "Hg0 mi
4:03 pm31 °FIce fog.3 mph96%29.96 "Hg0 mi
3:16 pm32 °FIce fog.6 mph92%29.97 "Hg0 mi
Weather by CustomWeather, © 2019

See weather overview

Advertising